Weather History for Livingston, MT

Change the Weather History Date:

Saturday, May 3, 2014

  Actual Average Record
Temperature  
Mean Temperature 43 °F 47 °F  
Max Temperature 47 °F 61 °F 82 °F (1966)
Min Temperature 39 °F 33 °F 19 °F (1954)
Degree Days  
Heating Degree Days 22    
Cooling Degree Days 0 0  
Month to date cooling degree days 0 0  
Year to date cooling degree days 0 0  
Moisture  
Dew Point 38 °F    
Average Humidity 80    
Maximum Humidity 89    
Minimum Humidity 71    
Precipitation  
Precipitation 0.00 in 0.08 in 0.52 in (1963)
Month to date precipitation 0.00 0.22  
Year to date precipitation 4.72 3.82  
Sea Level Pressure  
Sea Level Pressure 29.88 in    
Wind  
Wind Speed 15 mph (East)    
Max Wind Speed 26 mph    
Max Gust Speed 30 mph    
Visibility 10 miles    
Events      
T = Trace of Precipitation, MM = Missing Value Source: NWS Daily Summary

Daily Weather History Graph

Daily Weather History Graph

Search for Another Location

Airport:

Trip Planner

Search our weather history database for the weather conditions in past years. The results will help you decide how hot, cold, wet, or windy it might be!

Date:

Astronomy

May. 03, 2014 Rise Set
Actual Time 6:06 AM MDT 8:31 PM MDT
Civil Twilight 5:33 AM MDT 9:05 PM MDT
Nautical Twilight 4:51 AM MDT 9:46 PM MDT
Astronomical Twilight 4:05 AM MDT 10:33 PM MDT
Moon 9:36 AM MDT (5/3) No Moon Set
Length of Visible Light 15h 31m
Length of Day
14h 25m
Waxing Crescent, 20% of the Moon is Illuminated
May 3
Waxing Crescent
May 6
First Quarter
May 14
Full
May 21
Last Quarter
May 28
New

Hourly Weather History & Observations

Time (MDT) Temp. Windchill Dew Point Humidity Pressure Visibility Wind Dir Wind Speed Gust Speed Precip Events Conditions
12:53 AM 45.0 °F 40.1 °F 39.0 °F 80% 29.86 in 10.0 mi ESE 9.2 mph - N/A   Clear
1:53 AM 45.0 °F 39.7 °F 39.0 °F 80% 29.85 in 10.0 mi ESE 10.4 mph - N/A   Clear
2:53 AM 42.1 °F 38.4 °F 37.9 °F 85% 29.85 in 10.0 mi ESE 5.8 mph - N/A   Clear
4:44 AM 43.0 °F 38.8 °F 39.0 °F 86% 29.89 in 10.0 mi ESE 6.9 mph - N/A   Mostly Cloudy
4:53 AM 43.0 °F 39.5 °F 39.0 °F 86% 29.82 in 10.0 mi ESE 5.8 mph - N/A   Overcast
5:53 AM 43.0 °F 37.7 °F 39.0 °F 86% 29.82 in 10.0 mi East 9.2 mph - N/A   Overcast
6:53 AM 43.0 °F 36.8 °F 37.9 °F 82% 29.85 in 10.0 mi ENE 11.5 mph - N/A   Overcast
7:35 AM 43.0 °F 37.2 °F 39.0 °F 86% 29.94 in 10.0 mi ENE 10.4 mph - N/A   Overcast
7:51 AM 42.8 °F 36.2 °F 39.2 °F 87% 29.94 in 10.0 mi East 12.7 mph - N/A   Overcast
7:53 AM 43.0 °F 36.8 °F 39.0 °F 86% 29.90 in 10.0 mi East 11.5 mph - N/A   Overcast
8:53 AM 44.1 °F 37.7 °F 39.9 °F 85% 29.91 in 5.0 mi ENE 12.7 mph - N/A   Overcast
9:27 AM 45.0 °F 38.9 °F 39.9 °F 82% 29.93 in 10.0 mi ENE 12.7 mph - N/A   Overcast
9:39 AM 45.0 °F 37.9 °F 39.9 °F 82% 29.93 in 9.0 mi ENE 16.1 mph - N/A   Overcast
9:53 AM 46.0 °F 39.6 °F 39.9 °F 79% 29.90 in 10.0 mi ENE 15.0 mph - N/A   Overcast
10:16 AM 46.0 °F 39.3 °F 39.9 °F 79% 29.92 in 10.0 mi ENE 16.1 mph - N/A   Overcast
10:50 AM 46.4 °F 39.5 °F 39.2 °F 76% 29.92 in 10.0 mi ENE 17.3 mph - N/A   Overcast
10:53 AM 46.0 °F 39.0 °F 39.0 °F 76% 29.90 in 10.0 mi East 17.3 mph - N/A   Overcast
11:05 AM 46.0 °F 39.0 °F 39.0 °F 76% 29.92 in 10.0 mi ENE 17.3 mph - N/A   Overcast
11:53 AM 46.9 °F - 39.0 °F 74% 29.89 in 10.0 mi East 18.4 mph - N/A   Overcast
12:53 PM 46.9 °F - 39.0 °F 74% 29.88 in 10.0 mi East 21.9 mph - N/A   Overcast
1:31 PM 45.0 °F 36.4 °F 39.0 °F 80% 29.88 in 10.0 mi ENE 23.0 mph 28.8 mph N/A   Overcast
2:53 PM 46.0 °F 37.8 °F 37.9 °F 73% 29.87 in 10.0 mi East 23.0 mph - N/A   Overcast
3:53 PM 45.0 °F 36.6 °F 37.9 °F 76% 29.87 in 10.0 mi East 21.9 mph - N/A   Overcast
4:53 PM 44.1 °F 35.4 °F 37.9 °F 79% 29.86 in 10.0 mi ENE 21.9 mph - N/A   Overcast
5:53 PM 43.0 °F 34.8 °F 37.0 °F 80% 29.87 in 10.0 mi ENE 18.4 mph - N/A   Overcast
6:11 PM 43.0 °F 34.0 °F 37.0 °F 80% 29.86 in 10.0 mi East 21.9 mph - N/A   Overcast
6:21 PM 43.0 °F 34.0 °F 37.0 °F 80% 29.86 in 10.0 mi East 21.9 mph 27.6 mph N/A   Overcast
6:53 PM 43.0 °F 34.8 °F 37.0 °F 80% 29.85 in 10.0 mi East 18.4 mph 25.3 mph N/A   Overcast
7:26 PM 42.1 °F 34.5 °F 37.0 °F 82% 29.86 in 10.0 mi East 15.0 mph - N/A   Overcast
7:53 PM 42.1 °F 35.7 °F 37.0 °F 82% 29.87 in 10.0 mi ENE 11.5 mph - N/A   Overcast
8:53 PM 41.0 °F 31.6 °F 36.0 °F 82% 29.87 in 10.0 mi East 20.7 mph - N/A   Overcast
9:53 PM 39.9 °F 32.1 °F 36.0 °F 86% 29.88 in 10.0 mi East 13.8 mph 25.3 mph N/A   Overcast
10:53 PM 39.9 °F 31.8 °F 36.0 °F 86% 29.89 in 10.0 mi East 15.0 mph - N/A   Overcast
11:53 PM 39.0 °F 31.4 °F 36.0 °F 89% 29.88 in 6.0 mi East 12.7 mph - N/A   Overcast